Location: Bruderhein
(53.8035°N, 112.9265°W)
Time: 02:11:18
(UTC+00:00)

BEESAT - Pass Details

Date: 06 April 2023
Orbit: 696 x 706 km, 98.5° (Epoch: 31 May)

Event Time Altitude Azimuth Distance (km) Brightness Sun altitude
Rises 05:29:28 0° 12° (NNE) 3,114 ? -24.4°
Reaches altitude 10° 05:31:46 10° 8° (N) 2,189 ? -24.6°
Maximum altitude 05:36:26 53° 293° (WNW) 866 ? -24.9°
Enters shadow 05:38:24 32° 233° (SW) 1,214 ? -25.1°
